Cosmos 1892 Rocket - Orbit

View from above orbital plane
View from above orbital plane
View from above satellite
View from above satellite

Ground track
Ground track

The orbit data is extracted from the following two-line orbital elements,

1 18422U 87088B   13137.80991473  .00000486  00000-0  58126-4 0  9325
2 18422 082.5102 133.6191 0018453 311.2337 104.9857 14.82038594380843
Epoch (UTC): 17 May 2013 19:26:16
Eccentricity: 0.0018453
inclination: 82.5102°
perigee height: 610 km
apogee height: 636 km
right ascension of ascending node: 133.6191°
argument of perigee: 311.2337°
revolutions per day: 14.82038594
mean anomaly at epoch: 104.9857°
orbit number at epoch: 38084

The dashed part of the orbit path shows where the satellite is in the earth's shadow,  

Developed and maintained by Chris Peat, Heavens-Above GmbH. Please read the updated FAQ before sending e-mail. Imprint. DLR